Location: Spaichingen
(48.0400°N, 8.4300°E)
Time: 23:28:39
(UTC+02:00)

N. Korean satellite - Visible Passes

Search period start: 17 October 2019 00:00
Search period end: 27 October 2019 00:00
Orbit: 455 x 508 km, 97.2° (Epoch: 16 October)

Date Brightness Start Highest point End Pass type
(mag) Time Alt. Az. Time Alt. Az. Time Alt. Az.
17 Oct 9.9 06:31:32 10° NE 06:34:02 18° E 06:36:34 10° SE visible
19 Oct 7.5 07:13:30 10° NNE 07:17:03 54° E 07:20:37 10° S visible
19 Oct 9.9 19:26:53 10° SW 19:29:14 17° W 19:31:36 10° NW visible
20 Oct 9.0 06:48:31 10° NE 06:51:39 27° E 06:54:49 10° SSE visible
20 Oct 8.6 19:00:38 10° SSW 19:03:46 33° W 19:06:57 10° NNW visible
21 Oct 10.1 06:24:01 10° NE 06:26:11 15° E 06:28:21 10° SE visible
22 Oct 10.4 19:45:51 10° WSW 19:46:52 11° W 19:47:53 10° WNW visible
23 Oct 8.0 07:05:43 10° NNE 07:09:13 44° E 07:12:44 10° S visible
23 Oct 9.5 19:18:39 10° SW 19:21:20 21° W 19:24:02 10° NW visible
24 Oct 9.4 06:40:49 10° NE 06:43:47 23° E 06:46:46 10° SSE visible
24 Oct 8.1 18:52:36 10° S 18:55:52 41° W 18:59:12 10° NNW visible
25 Oct 10.3 06:16:37 10° ENE 06:18:17 13° E 06:19:56 10° ESE visible
26 Oct 6.9 07:23:02 10° NNE 07:26:42 74° E 07:30:24 10° S visible
26 Oct 10.1 19:37:05 10° WSW 19:38:54 14° W 19:40:45 10° WNW visible
